Weather History for KAVC - June, 2014

Change the Weather History Date:

Thursday, June 19, 2014

  Actual Average (KEMV) Record (KEMV)
Temperature  
Mean Temperature 82 °F -  
Max Temperature 93 °F 88 °F 96 °F (2007)
Min Temperature 71 °F 64 °F 54 °F (1986)
Cooling Degree Days 17    
Growing Degree Days 32 (Base 50)    
Moisture  
Dew Point 72 °F    
Average Humidity 77    
Maximum Humidity 100    
Minimum Humidity 49    
Precipitation  
Precipitation 0.04 in - - ()
Sea Level Pressure  
Sea Level Pressure 30.08 in    
Wind  
Wind Speed 4 mph (SW)    
Max Wind Speed 12 mph    
Max Gust Speed 33 mph    
Visibility 10 miles    
Events Rain , Thunderstorm    
Averages and records for this station are not official NWS values.
T = Trace of Precipitation, MM = Missing Value Source: NWS Daily Summary

Daily Weather History Graph

Daily Weather History Graph

Search for Another Location

Airport or City:

Trip Planner

Search our weather history database for the weather conditions in past years. The results will help you decide how hot, cold, wet, or windy it might be!

Date:

Astronomy

Jun. 19, 2014 Rise Set
Actual Time 5:53 AM EDT 8:33 PM EDT
Civil Twilight 5:22 AM EDT 9:04 PM EDT
Nautical Twilight 4:44 AM EDT 9:42 PM EDT
Astronomical Twilight 4:01 AM EDT 10:25 PM EDT
Moon 12:46 AM EDT (6/19) 1:10 PM EDT (6/19)
Length of Visible Light 15h 41m
Length of Day
14h 40m
Waning Gibbous, 51% of the Moon is Illuminated
Jun 19
Waning Gibbous
Jun 19
Last Quarter
Jun 27
New
Jul 5
First Quarter
Jul 12
Full

Hourly Weather History & Observations

Time (EDT) Temp. Heat Index Dew Point Humidity Pressure Visibility Wind Dir Wind Speed Gust Speed Precip Events Conditions
12:15 AM 78.8 °F - 71.6 °F 78% 30.10 in 10.0 mi SW 4.6 mph - N/A   Scattered Clouds
12:35 AM 78.8 °F - 71.6 °F 78% 30.10 in 10.0 mi SW 4.6 mph - N/A   Clear
12:55 AM 78.8 °F - 71.6 °F 78% 30.10 in 10.0 mi SW 3.5 mph - N/A   Clear
1:15 AM 75.2 °F - 71.6 °F 89% 30.09 in 10.0 mi SSW 5.8 mph - N/A   Clear
1:35 AM 75.2 °F - 71.6 °F 89% 30.09 in 10.0 mi SSW 5.8 mph - N/A   Clear
1:55 AM 75.2 °F - 71.6 °F 89% 30.09 in 10.0 mi SSW 5.8 mph - N/A   Clear
2:15 AM 77.0 °F - 71.6 °F 83% 30.09 in 10.0 mi SSW 3.5 mph - N/A   Clear
2:35 AM 75.2 °F - 71.6 °F 89% 30.09 in 10.0 mi SW 3.5 mph - N/A   Clear
2:55 AM 75.2 °F - 71.6 °F 89% 30.09 in 10.0 mi SSW 4.6 mph - N/A   Clear
3:15 AM 75.2 °F - 71.6 °F 89% 30.09 in 10.0 mi SSW 3.5 mph - N/A   Clear
3:35 AM 73.4 °F - 73.4 °F 100% 30.08 in 10.0 mi SSW 4.6 mph - N/A   Clear
3:55 AM 73.4 °F - 73.4 °F 100% 30.07 in 10.0 mi SSW 5.8 mph - N/A   Clear
4:15 AM 73.4 °F - 71.6 °F 94% 30.07 in 10.0 mi SW 5.8 mph - N/A   Clear
4:35 AM 75.2 °F - 71.6 °F 89% 30.08 in 10.0 mi SW 4.6 mph - N/A   Clear
4:55 AM 73.4 °F - 69.8 °F 88% 30.07 in 10.0 mi SSW 4.6 mph - N/A   Clear
5:15 AM 73.4 °F - 71.6 °F 94% 30.08 in 10.0 mi SSW 4.6 mph - N/A   Clear
6:15 AM 75.2 °F - 69.8 °F 83% 30.09 in 10.0 mi SW 5.8 mph - N/A   Clear
6:35 AM 75.2 °F - 69.8 °F 83% 30.10 in 10.0 mi SSW 5.8 mph - N/A   Clear
6:55 AM 75.2 °F - 69.8 °F 83% 30.11 in 10.0 mi SW 3.5 mph - N/A   Clear
7:15 AM 77.0 °F - 69.8 °F 78% 30.11 in 10.0 mi SW 5.8 mph - N/A   Clear
7:35 AM 78.8 °F - 69.8 °F 74% 30.11 in 10.0 mi SSW 5.8 mph - N/A   Clear
7:55 AM 78.8 °F - 69.8 °F 74% 30.11 in 10.0 mi SW 5.8 mph - N/A   Clear
8:15 AM 80.6 °F 83.9 °F 69.8 °F 70% 30.11 in 10.0 mi SW 8.1 mph - N/A   Clear
8:35 AM 80.6 °F 83.9 °F 69.8 °F 70% 30.12 in 10.0 mi SW 8.1 mph - N/A   Clear
8:55 AM 82.4 °F 86.3 °F 69.8 °F 66% 30.12 in 10.0 mi SW 5.8 mph - N/A   Clear
9:15 AM 84.2 °F 89.6 °F 71.6 °F 66% 30.12 in 10.0 mi SW 4.6 mph - N/A   Clear
9:35 AM 84.2 °F 89.6 °F 71.6 °F 66% 30.12 in 10.0 mi SW 4.6 mph - N/A   Clear
9:55 AM 84.2 °F 89.6 °F 71.6 °F 66% 30.11 in 10.0 mi SW 6.9 mph - N/A   Clear
10:15 AM 86.0 °F 91.8 °F 71.6 °F 62% 30.11 in 10.0 mi WSW 3.5 mph - N/A   Clear
10:35 AM 87.8 °F 95.6 °F 73.4 °F 62% 30.11 in 10.0 mi WSW 5.8 mph - N/A   Scattered Clouds
10:55 AM 87.8 °F 95.6 °F 73.4 °F 62% 30.12 in 10.0 mi West 4.6 mph - N/A   Clear
11:15 AM 87.8 °F 93.8 °F 71.6 °F 58% 30.11 in 10.0 mi WSW 6.9 mph - N/A   Clear
11:35 AM 89.6 °F 98.2 °F 73.4 °F 59% 30.11 in 10.0 mi West 6.9 mph - N/A   Clear
11:55 AM 89.6 °F 98.2 °F 73.4 °F 59% 30.11 in 10.0 mi WSW 4.6 mph - N/A   Clear
12:15 PM 91.4 °F 100.1 °F 73.4 °F 55% 30.11 in 10.0 mi SW 9.2 mph - N/A   Clear
12:35 PM 91.4 °F 98.4 °F 71.6 °F 52% 30.11 in 10.0 mi WSW 5.8 mph - N/A   Clear
12:55 PM 91.4 °F 98.4 °F 71.6 °F 52% 30.10 in 10.0 mi WSW 8.1 mph - N/A   Clear
1:15 PM 91.4 °F 98.4 °F 71.6 °F 52% 30.09 in 10.0 mi West 5.8 mph - N/A   Clear
1:35 PM 93.2 °F 100.5 °F 71.6 °F 49% 30.09 in 10.0 mi WSW 5.8 mph - N/A   Clear
1:55 PM 93.2 °F 100.5 °F 71.6 °F 49% 30.08 in 10.0 mi WNW 3.5 mph - N/A   Clear
2:15 PM 93.2 °F 100.5 °F 71.6 °F 49% 30.08 in 10.0 mi West 3.5 mph - N/A   Clear
2:35 PM 93.2 °F 100.5 °F 71.6 °F 49% 30.07 in 10.0 mi SSW 4.6 mph - N/A   Clear
2:55 PM 91.4 °F 98.4 °F 71.6 °F 52% 30.06 in 10.0 mi SW 5.8 mph - N/A   Scattered Clouds
3:15 PM 89.6 °F 98.2 °F 73.4 °F 59% 30.05 in 7.0 mi SSW 11.5 mph - N/A Rain Rain
3:35 PM 89.6 °F 98.2 °F 73.4 °F 59% 30.05 in 10.0 mi Calm Calm - N/A Thunderstorm Thunderstorm
3:55 PM 77.0 °F - 69.8 °F 78% 30.05 in 10.0 mi SE 4.6 mph 33.4 mph 0.02 in Rain , Thunderstorm Light Thunderstorms and Rain
4:15 PM 78.8 °F - 71.6 °F 78% 30.05 in 10.0 mi Calm Calm - 0.02 in Thunderstorm Thunderstorm
4:35 PM 82.4 °F 88.2 °F 73.4 °F 74% 30.04 in 10.0 mi Calm Calm - 0.02 in   Scattered Clouds
4:55 PM 84.2 °F 92.3 °F 75.2 °F 74% 30.03 in 10.0 mi SSW 3.5 mph - N/A   Clear
5:15 PM 86.0 °F 95.1 °F 75.2 °F 70% 30.01 in 10.0 mi South 3.5 mph - N/A   Clear
5:35 PM 86.0 °F 95.1 °F 75.2 °F 70% 30.02 in 10.0 mi Calm Calm - N/A Thunderstorm Clear
5:55 PM 84.2 °F 92.3 °F 75.2 °F 74% 30.02 in 10.0 mi Calm Calm - N/A   Scattered Clouds
6:15 PM 82.4 °F 87.2 °F 71.6 °F 70% 30.03 in 10.0 mi NNW 9.2 mph 21.9 mph N/A Rain , Thunderstorm Light Thunderstorms and Rain
6:35 PM 78.8 °F - 73.4 °F 83% 30.04 in 10.0 mi Calm Calm - N/A Rain , Thunderstorm Light Thunderstorms and Rain
6:55 PM 78.8 °F - 73.4 °F 83% 30.05 in 10.0 mi Calm Calm - N/A Thunderstorm Clear
7:15 PM 80.6 °F 85.4 °F 73.4 °F 79% 30.04 in 10.0 mi Calm Calm - N/A   Clear
7:35 PM 80.6 °F 86.2 °F 75.2 °F 84% 30.04 in 10.0 mi Calm Calm - N/A   Clear
7:55 PM 80.6 °F 86.2 °F 75.2 °F 84% 30.04 in 10.0 mi Calm Calm - N/A   Clear
8:15 PM 78.8 °F - 78.8 °F 100% 30.06 in 10.0 mi NNE 5.8 mph - N/A   Clear
8:35 PM 75.2 °F - 73.4 °F 94% 30.08 in 10.0 mi NNE 6.9 mph - N/A   Clear
8:55 PM 75.2 °F - 71.6 °F 89% 30.08 in 10.0 mi NNE 4.6 mph - N/A   Clear
9:15 PM 73.4 °F - 71.6 °F 94% 30.08 in 10.0 mi Calm Calm - N/A   Clear
9:35 PM 73.4 °F - 71.6 °F 94% 30.06 in 10.0 mi Calm Calm - N/A   Clear
9:55 PM 73.4 °F - 71.6 °F 94% 30.06 in 10.0 mi Calm Calm - N/A   Clear
10:15 PM 73.4 °F - 71.6 °F 94% 30.06 in 10.0 mi Calm Calm - N/A   Clear
10:35 PM 71.6 °F - 71.6 °F 100% 30.06 in 10.0 mi Calm Calm - N/A   Clear
10:55 PM 71.6 °F - 71.6 °F 100% 30.08 in 10.0 mi Calm Calm - N/A   Clear
11:15 PM 71.6 °F - 71.6 °F 100% 30.08 in 10.0 mi Calm Calm - N/A   Clear
11:35 PM 71.6 °F - 71.6 °F 100% 30.08 in 10.0 mi Calm Calm - N/A   Clear